Showing default

NORBI, 46494

Orbit data source: Space-Track

NORBI, 46494 is a payload satellite owned by Novosibirsk SU (CIS) in SSO that was launched on Mon, 28 Sep 2020 UTC via a SOYUZ-2-1B launch vehicle from the Plesetsk Missile And Space Complex (PKMTR). Payloads include a variety of satellites, spacecraft, and rockets equipped with specific instruments for various scientific and technological missions. These include communications satellites like Starlink; space stations such as the ISS; scientific satellites like the Hubble; Earth observation satellites from companies like Planet Labs, Umbra, and HawkEye 360; GPS; miniature CubeSats for education and research; and military/defense satellites.

Loading next visibility...
NORBI details
Identifier
46494, 2020-068J
Orbit
SSO
Last TLE update9 hours ago
Origin
Flag of CISNovosibirsk SU (CIS)
ManufacturerNovosibirsk SU
MissionOperational Amateur Science
Bus & MotorCUBESAT 6U, Unknown motor
Mass~10 kg wet, ~10 kg dry
Launch date (UTC)
2020-09-28 (4 years ago)
Launch vehicle
SOYUZ-2-1B
Launch site
Plesetsk Missile And Space Complex (PKMTR)
Object type
Payload
Rocket body
Debris
Shape & HBRBox, Unknown HBR
Radar Cross Section0.035 m², Small (<0.1 m²)

Expand to show TLE details & history

TLE from 9 hours ago
0 NORBI
1 46494U 20068J   24361.18750659  .00021162  00000-0  85374-3 0  9992
2 46494  97.8395 329.9274 0012893  19.7503 340.4230 15.24756881233623
Epoch: 2024-12-26T04:30Z
Definitive object data (Epoch: 2024-12-26T04:30:00.569Z)
Latitude-0.00003°
Longitude167.25453°
Altitude486.254 km
Speed7.627 km/s
True Right ascension21h 59m 42s
True Declination0° 00' 00"
Sunlit
Object was in daylight at TLE epoch
Visualization TLE readout
Latitude24.12225°
Longitude-8.85726°
Altitude501.023 km
Speed7.612 km/s
Apparent Right ascension06h 52m 18s
Apparent Declination-20° 36' 38"
Sunlit
Object is in full shadow
Visualization observer readout
Local Sidereal Time12:24:55
Azimuth249.818° W
Elevation-8.065°
Doppler factor1
Orbital elements
Apogee altitude497.347 km
Perigee altitude479.641 km
Semi-major axis6,866.631 km
Eccentricity0.0012893
Inclination97.8395°
RAAN329.9274°
Arg. of periapsis19.7503°
True anomaly340.37342°
Mean anomaly340.423°
Eccentric anomaly340.39822°
Mean motion3.81441 °/min
BSTAR0.00085374
Orbital period94.38 mins
Loading maneuver chart data...
Loading historical data...
Loading historical data...
Loading historical data...
Loading historical data...
Loading historical data...
Loading historical data...
Loading historical data...

NORBI Visibility forecast

Observer location: undefined°, undefined

Span
Click to sort rows by Start time (UTC) header in descending order
Start Az.
Max El. time (UTC)
Max El. Az.
Max El.
End time (UTC)
End Az.
6 mins2024-12-26 21:57:18.187Z152.235° SSE2024-12-26 22:00:18.187Z66.457° ENE40.319°2024-12-26 22:03:18.187Z356.879° N
5 mins2024-12-27 11:00:18.187Z18.371° NNE2024-12-27 11:02:18.187Z144.392° SSE44.126°2024-12-27 11:05:18.187Z189.312° SSW
|